Flag for Vietnam Weather past 2 weeks in Da Nang, Vietnam

Now
77 °F

Fog.


Feels Like: 78 °F
Forecast: 77 / 88 °F
Wind: No wind

Location: Da Nang Airport

Current Time: Mar 31, 2015 at 6:44:29 AM

Latest Report: Mar 31, 2015 at 6:00 AM


Visibility: 2 mi

Pressure: 29.89 "Hg

Humidity: 100%

Dew point: 77 °F

Location of Da NangLocation

Historic Weather in Da Nang — Graph

°F

Da Nang temperature yesterday

Maximum temperature yesterday: 88 °F (at 2:00 PM)
Minimum temperature yesterday: 77 °F (at 3:00 AM)
Average temperature yesterday: 81 °F

Past Weeks' High & Low Weather Summary

 TemperatureHumidityPressure
High90 °F (Mar 16, 1:00 PM)100% (Mar 20, 5:00 AM)30.15 "Hg (Mar 20, 5:00 AM)
Low68 °F (Mar 23, 5:00 AM)49% (Mar 20, 1:30 PM)29.71 "Hg (Mar 18, 3:30 AM)
Average80 °F83%29.95 "Hg
* Reported Mar 16 5:00 AM — Mar 31 5:00 AM, Da Nang, Weather by CustomWeather, © 2015

Note: Actual official high and low records may vary slightly from our data, if they occured in-between our weather recording intervals... More about our weather records

Advertising

Da Nang weather history for previous 24 hours

 ConditionsComfort  
Time TempWeatherWind HumidityBarometerVisibility
5:00 AM
Tue, Mar 31
77 °FFog.No wind100%29.86 "Hg2 mi
4:30 AM77 °FFog.1 mph100%29.86 "Hg2 mi
4:00 AM77 °FFog.No wind100%29.86 "Hg2 mi
3:30 AM77 °FFog.2 mph100%29.83 "Hg2 mi
3:00 AM79 °FFog.1 mph94%29.83 "Hg3 mi
2:30 AM79 °FFog.2 mph94%29.83 "Hg3 mi
2:00 AM79 °FFog.2 mph94%29.83 "Hg3 mi
1:30 AM79 °FFog.1 mph94%29.86 "Hg3 mi
1:00 AM79 °FFog.1 mph94%29.86 "Hg3 mi
12:30 AM79 °FFog.1 mph94%29.86 "Hg3 mi
12:00 AM79 °FFog.1 mph94%29.89 "Hg3 mi
11:00 PM
Mon, Mar 30
79 °FFog.6 mph94%29.89 "Hg3 mi
10:30 PM79 °FFog.2 mph94%29.92 "Hg3 mi
10:00 PM79 °FFog.2 mph94%29.92 "Hg3 mi
9:30 PM81 °FPartly cloudy.3 mph89%29.92 "Hg4 mi
9:00 PM81 °FPartly cloudy.2 mph89%29.92 "Hg4 mi
8:30 PM81 °FPartly cloudy.2 mph89%29.92 "Hg4 mi
8:00 PM81 °FPartly cloudy.2 mph89%29.92 "Hg4 mi
7:30 PM81 °FPartly cloudy.5 mph89%29.89 "Hg4 mi
7:00 PM81 °FPartly cloudy.3 mph94%29.89 "Hg4 mi
6:30 PM81 °FPartly cloudy.7 mph89%29.89 "Hg4 mi
6:00 PM81 °FPassing clouds.7 mph89%29.89 "Hg4 mi
5:30 PM81 °FPartly sunny.8 mph89%29.86 "Hg4 mi
5:00 PM82 °FPartly sunny.7 mph84%29.86 "Hg4 mi
4:30 PM82 °FPartly sunny.8 mph84%29.86 "Hg4 mi
4:00 PM82 °FPartly sunny.8 mph84%29.86 "Hg4 mi
3:30 PM84 °FPartly sunny.10 mph79%29.86 "Hg4 mi
3:00 PM84 °FPartly sunny.12 mph79%29.86 "Hg4 mi
2:30 PM86 °FPartly sunny.10 mph75%29.86 "Hg4 mi
2:00 PM88 °FPartly sunny.9 mph66%29.86 "Hg4 mi
1:30 PM86 °FPartly sunny.8 mph70%29.89 "Hg4 mi
1:00 PM86 °FPartly sunny.9 mph75%29.89 "Hg4 mi
12:30 PM86 °FPartly sunny.8 mph70%29.89 "Hg4 mi
12:00 PM86 °FPartly sunny.8 mph75%29.92 "Hg4 mi
11:30 AM86 °FPartly sunny.3 mph70%29.92 "Hg4 mi
11:00 AM84 °FPartly sunny.1 mph79%29.95 "Hg4 mi
10:30 AM82 °FPartly sunny.2 mph84%29.95 "Hg4 mi
10:00 AM82 °FPartly sunny.3 mph84%29.95 "Hg4 mi
9:30 AM82 °FFog.2 mph84%29.95 "Hg3 mi
9:00 AM82 °FFog.3 mph79%29.95 "Hg3 mi
8:30 AM81 °FFog.3 mph84%29.98 "Hg3 mi
8:00 AM81 °FFog.6 mph84%29.95 "Hg3 mi
7:30 AM79 °FFog.5 mph94%29.95 "Hg3 mi
7:00 AM79 °FFog.3 mph89%29.92 "Hg3 mi
6:30 AM77 °FFog.3 mph94%29.92 "Hg3 mi
6:00 AM77 °FFog.5 mph94%29.89 "Hg3 mi
Weather by CustomWeather, © 2015

See weather overviewHow to use our weather pages